Location: Peebles
(55.6412°N, 3.1714°W)
Time: 17:19:27
(UTC+01:00)

Cosmos 1934 Rocket - Pass Details

Date: 01 February 2022
Orbit: 938 x 999 km, 83.0° (Epoch: 25 May)

Event Time Altitude Azimuth Distance (km) Brightness Sun altitude
Rises 05:31:02 0° 145° (SE) 3,684 7.5 -21.8°
Reaches altitude 10° 05:34:00 10° 133° (SE) 2,731 7.0 -21.4°
Maximum altitude 05:38:53 25° 81° (E) 1,865 6.3 -20.7°
Drops below altitude 10° 05:43:44 10° 29° (NNE) 2,712 6.7 -20.0°
Sets 05:46:39 0° 17° (NNE) 3,653 7.2 -19.6°
